Location: Fort Worth, Tx
(32.7431°N, 97.3695°W)
Time: 08:45:28
(UTC-05:00)

ISS - Pass Details

Date: 19 November 2019
Orbit: 411 x 421 km, 51.6° (Epoch: 09 December)

Event Time Altitude Azimuth Distance (km) Brightness Sun altitude
Rises 19:18:59 0° 199° (SSW) 2,334 0.6 -11.3°
Reaches altitude 10° 19:21:18 10° 184° (S) 1,478 -0.7 -11.7°
Maximum altitude 19:24:02 24° 129° (SE) 913 -2.4 -12.3°
Enters shadow 19:25:12 20° 97° (E) 1,041 -2.3 -12.5°
